Showing default

FLOCK 4G 34, 62650

Orbit data source: Space-Track

FLOCK 4G 34, 62650 is a payload satellite owned by Planet (US) in SSO that was launched on Tue, 14 Jan 2025 UTC via an FALCON 9 launch vehicle from the Air Force Western Test Range (AFWTR). Payload-class satellites include a variety of spacecraft equipped with specific instruments for various scientific and technological missions. These include communications satellites like Starlink; space stations such as the ISS; scientific satellites like the Hubble; Earth observation satellites from companies like Planet Labs, Umbra, and HawkEye 360; GPS; miniature CubeSats for education and research; and military/defense satellites.

Loading next visibility...
Identifier
62650, 2025-009AT
Orbit
SSO
Country
Flag of USUS
Related business
Manufacturer
Planet
Mission
Operational Commercial Imaging
Bus & Motor
CUBESAT 3U, Unknown motor
Mass
5.7 kg wet, 5.7 kg dry
Launch date (UTC)
2025-01-14 (9 months ago)
Launch vehicle
FALCON 9
Launch site
Air Force Western Test Range (AFWTR)
Object type
Payload
Rocket body
Debris
Shape & HBR
Box + 2 Pan, 1.0 m
Radar Cross Section
0.072 m², Medium (>0.1 m² and < 1m²)

Expand to show TLE details & history
Last TLE update: 23 hours ago

TLE from 23 hours ago
0 FLOCK 4G 34
1 62650U 25009AT  25286.17568374  .00017400  00000-0  73995-3 0  9997
2 62650  97.4182   4.9139 0003321 104.4278 255.7328 15.23081754 41231
Epoch: 2025-10-13T04:12Z
TLE epoch observation values (Epoch: 2025-10-13T04:12:59.075Z)
Latitude
0.00005°
Longitude
-80.31448°
Altitude
500.209 km
Speed
7.614 km/s
True Right ascension
00h 19m 39s
True Declination
0° 00' 00"
Sunlit
Object was in full shadow at epoch
Visualization orbit readout
Latitude
Unknown
Longitude
Unknown
Altitude
Unknown
Speed
Unknown
Apparent Right ascension
Unknown
Apparent Declination
Unknown
Sunlit
N/A
Visualization observer readout
Local Sidereal Time
21:23:26
Azimuth
Unknown
Elevation
Unknown
Doppler factor
Unknown
Orbital elements
Apogee altitude
495.796 km
Perigee altitude
491.232 km
Semi-major axis
6,871.651 km
Eccentricity
0.00033
Inclination
97.4182°
RAAN
4.9139°
Arg. of periapsis
104.4278°
True anomaly
255.69592°
Mean anomaly
255.7328°
Eccentric anomaly
255.71436°
Mean motion
3.81023 °/min
Orbital period
94.48 mins
BSTAR
0.00073995
Loading maneuver chart data...
Computing Atmospheric mass density...
Loading historical data...
Loading historical data...
Loading historical data...
Loading historical data...
Loading historical data...
Loading historical data...
Loading historical data...

Documentation

Showing up to 5 results
|